Regional Weather Roundup
Issued by NWS

Home | Current Version | Previous Version | Text Only | Print | Product List | Glossary Off
Versions: 1 2 3 4 5 6 7 8 9 10 11 12 13 14 15 16 17 18 19 20 21 22 23 24 25 26 27 28 29 30 31 32 33 34 35 36 37 38 39 40 41 42 43 44 45 46 47 48 49 50

000
ASUS43 KLMK 021802
RWRKY
KENTUCKY REGIONAL WEATHER ROUNDUP
NATIONAL WEATHER SERVICE LOUISVILLE KY
200 PM EDT TUE JUN 02 2015

NOTE "FAIR" INDICATES FEW OR NO CLOUDS BELOW 12,000 FEET
WITH NO SIGNIFICANT WEATHER AND/OR OBSTRUCTIONS TO VISIBILITY.

KYZ001>023-026-027-061>063-070>075-021900-
WESTERN AND SOUTH CENTRAL KENTUCKY

CITY           SKY/WX    TMP DP  RH WIND       PRES   REMARKS
PADUCAH        CLOUDY    65  56  72 NE7       30.10F
HENDERSON      CLOUDY    63  54  72 N7        30.10F
OWENSBORO      CLOUDY    64  56  75 NE8       30.11F
HOPKINSVILLE   CLOUDY    64  58  79 NE6       30.09S
BOWLING GREEN  CLOUDY    64  58  80 NE9       30.10S
GLASGOW        NOT AVBL
$$

KYZ024-025-028>034-038-045-046-053-021900-
NORTH CENTRAL KENTUCKY

CITY           SKY/WX    TMP DP  RH WIND       PRES   REMARKS
LOUISVILLE/SDF CLOUDY    62  53  72 E5        30.11F
LOUISVILLE/LOU CLOUDY    62  53  72 NE6       30.12F
FORT KNOX      CLOUDY    61  55  80 VRB6      30.10S
$$

KYZ035>037-039>044-047>052-055>060-089>105-021900-
NORTHEAST KENTUCKY

CITY           SKY/WX    TMP DP  RH WIND       PRES   REMARKS
LEXINGTON      CLOUDY    58  53  84 NE8       30.13F
COVINGTON      CLOUDY    59  51  75 NE9       30.15F
FRANKFORT      CLOUDY    60  52  74 NE6       30.12F
$$

KYZ054-064>069-076>088-106>120-021900-
SOUTHEAST KENTUCKY

CITY           SKY/WX    TMP DP  RH WIND       PRES   REMARKS
JACKSON        CLOUDY    59  55  87 CALM      30.11F
LONDON         CLOUDY    68  55  63 N9        30.09F
SOMERSET       NOT AVBL
MIDDLESBORO    NOT AVBL
MONTICELLO     CLOUDY    68  60  75 VRB7      30.11F
$$



USA.gov is the U.S. government's official web portal to all federal, state and local government web resources and services.